Погода в Чибадаке

Индонезия     6°13′28″S   107°22′29″E
темп.,
°C
ветер,
м/с
пор.,
м/с
влажн.,
%
обл.,
%
осадки,
мм/ч
давл.,
гПа
погр.,
м
2 марта, вт
вт201:00+25ю0092100 0.1 101024
04:00+25сз229099 0.1 100935
07:00+25зсз238799 1.7 101162
10:00+30сз457050 4.3 1012930
13:00+31сз566536 7.1 10091050
16:00+30ссз56674 0.2 1007661
19:00+26сз238552 1.3 101056
22:00+26с2288100 2.9 101251
3 марта, ср
ср301:00+25юв119194 3.1 101028
04:00+24вюв239299 0.1 100962
07:00+24вюв2392100 0.1 1010110
10:00+30ссв117373 0.0 1011800
13:00+31с336270 1.1 10091191
16:00+29с457668 3.3 1008825
19:00+26сз238984 7.8 101088
22:00+26ссз1187100 1.0 101224
4 марта, чт
чт401:00+25ю128896 2.1 101224
04:00+25юв1186100 0.1 101124
07:00+24вюв2389100 0.1 101279
10:00+30в016878 0.0 1012715
13:00+32ссз225780 0.0 10101429
16:00+30ссз446748 0.2 1008739
19:00+26ссз238074 1.1 101059
22:00+25всв1189100 3.8 101229
5 марта, пт
пт501:00+24вюв2393100 5.1 1011106
04:00+25юв1192100 0.0 101024
07:00+26ююв008799 0.0 101142
10:00+30ссв117067 0.0 1012812
13:00+33ссв325737 0.0 10091486
16:00+30с447044 2.3 1007946
19:00+26ссв228548 3.4 100935
22:00+26с1286100 4.1 101124
6 марта, сб
сб601:00+25ссз0087100 4.4 101024
04:00+25ююз118795 0.2 100924
07:00+26вюв118695 0.2 101069
10:00+30ссз226416 0.0 10111037
13:00+31ссз446538 0.4 10091103
16:00+30ссз556941 1.1 1007998
19:00+25юв339371 9.9 101074
22:00+23ю5795100 10.9 1012306